Scottsdale, AZ

9:52 AM MST on July 26, 2017 (GMT -0700)
Scottsdale

Weather History for KSDL - November, 2013

Change the Weather History Date:

Wednesday, November 27, 2013

  Actual Average Record
Temperature  
Mean Temperature 60 °F -  
Max Temperature 66 °F 66 °F 84 °F (2014)
Min Temperature 53 °F 45 °F 37 °F (2001)
Degree Days  
Heating Degree Days 6    
Growing Degree Days 10 (Base 50)    
Moisture  
Dew Point 28 °F    
Average Humidity 30    
Maximum Humidity 47    
Minimum Humidity 21    
Precipitation  
Precipitation 0.00 in - - ()
Sea Level Pressure  
Sea Level Pressure 30.05 in    
Wind  
Wind Speed 6 mph (East)    
Max Wind Speed 12 mph    
Max Gust Speed 20 mph    
Visibility 10 miles    
Events      
Averages and records for this station are not official NWS values.
T = Trace of Precipitation, MM = Missing Value Source: NWS Daily Summary

Daily Weather History Graph

Daily Weather History Graph

Search for Another Location

Airport or City:

Trip Planner

Search our weather history database for the weather conditions in past years. The results will help you decide how hot, cold, wet, or windy it might be!

Date:

Astronomy

Nov. 27, 2013 Rise Set
Actual Time 7:10 AM MST 5:19 PM MST
Civil Twilight 6:43 AM MST 5:46 PM MST
Nautical Twilight 6:13 AM MST 6:17 PM MST
Astronomical Twilight 5:43 AM MST 6:47 PM MST
Moon 1:31 AM MST (11/27) 1:45 PM MST (11/27)
Length of Visible Light 11h 03m
Length of Day
10h 09m
Waning Crescent, 31% of the Moon is Illuminated
Nov 27
Waning Crescent
Dec 2
New
Dec 9
First Quarter
Dec 17
Full
Dec 25
Last Quarter

Hourly Weather History & Observations

Time (MST) Temp. Dew Point Humidity Pressure Visibility Wind Dir Wind Speed Gust Speed Precip Events Conditions
12:53 AM 61.0 °F 26.1 °F 26% 30.14 in 10.0 mi East 11.5 mph 19.6 mph N/A   Clear
1:53 AM 59.0 °F 27.0 °F 29% 30.12 in 10.0 mi East 3.5 mph - N/A   Clear
2:53 AM 59.0 °F 27.0 °F 29% 30.11 in 10.0 mi East 5.8 mph - N/A   Clear
3:53 AM 53.1 °F 30.9 °F 43% 30.12 in 10.0 mi East 3.5 mph - N/A   Clear
4:53 AM 54.0 °F 32.0 °F 43% 30.11 in 10.0 mi East 3.5 mph - N/A   Clear
5:53 AM 55.0 °F 28.9 °F 37% 30.11 in 10.0 mi East 3.5 mph - N/A   Clear
6:53 AM 55.9 °F 27.0 °F 33% 30.12 in 10.0 mi ENE 3.5 mph - N/A   Clear
7:53 AM 54.0 °F 32.0 °F 43% 30.11 in 10.0 mi ENE 4.6 mph - N/A   Clear
8:53 AM 57.0 °F 33.1 °F 40% 30.11 in 10.0 mi ENE 3.5 mph - N/A   Clear
9:53 AM 61.0 °F 27.0 °F 27% 30.10 in 10.0 mi ENE 3.5 mph - N/A   Clear
10:53 AM 63.0 °F 28.0 °F 27% 30.08 in 10.0 mi East 9.2 mph - N/A   Clear
11:53 AM 64.9 °F 27.0 °F 24% 30.05 in 10.0 mi East 11.5 mph - N/A   Clear
12:53 PM 66.0 °F 28.0 °F 24% 30.01 in 10.0 mi East 8.1 mph - N/A   Clear
1:53 PM 66.9 °F 26.1 °F 21% 29.99 in 10.0 mi East 8.1 mph 17.3 mph N/A   Clear
2:53 PM 66.0 °F 26.1 °F 22% 29.99 in 10.0 mi ESE 5.8 mph - N/A   Clear
3:53 PM 66.0 °F 26.1 °F 22% 29.98 in 10.0 mi East 5.8 mph - N/A   Clear
4:53 PM 64.0 °F 25.0 °F 23% 29.98 in 10.0 mi East 6.9 mph - N/A   Clear
5:53 PM 63.0 °F 25.0 °F 24% 29.98 in 10.0 mi East 4.6 mph - N/A   Clear
6:53 PM 62.1 °F 26.1 °F 25% 29.99 in 10.0 mi ENE 3.5 mph - N/A   Clear
7:53 PM 62.1 °F 24.1 °F 23% 30.00 in 10.0 mi East 4.6 mph - N/A   Clear
8:53 PM 61.0 °F 24.1 °F 24% 30.01 in 10.0 mi East 5.8 mph - N/A   Clear
9:53 PM 59.0 °F 26.1 °F 28% 30.01 in 10.0 mi Calm Calm - N/A   Clear
10:53 PM 55.9 °F 30.0 °F 37% 30.00 in 10.0 mi Calm Calm - N/A   Clear
11:53 PM 53.1 °F 33.1 °F 47% 30.01 in 10.0 mi NE 5.8 mph - N/A   Clear